SCP
0 0 0 0 0 0 0 0 0 0 0 0 0 0 -0 0 0 0 0 0 -0 0 0 0 0 0 0 0 0 0 0 0 0 0 0 0 0 0 0 0 0 0 0 0 0 0 0 0 0 0 0 0 0 0
0 0 0 0 0 0 0 0 0 0 0 0 0 -0 -0 0 0 0 0 0 0 0 0 0 0 0 0 0 0 0 0 0 0 0 0 0 0 0 0 0 0 0 0 0 0 0 0 0 0 0 0 0 0 0
0 0 0 0 0 0 0 0 0 0 0 0 -0 -0 -0 -0 -0 0 0 0 -0 -0 0 0 0 0 0 0 0 0 0 0 0 0 0 0 0 0 0 0 0 0 0 0 0 0 0 0 0 0 0 0 0 0
0 0 0 0 0 0 0 0 0 0 0 0 -0 -0 -0 -0 -0 0 0 0 -0 0 0 0 0 0 0 0 0 0 0 0 0 0 0 0 0 0 0 0 0 0 0 0 0 0 0 0 0 0 0 0 0 0
0 0 0 0 0 0 0 0 0 0 0 -0 -0 -0 -0 -0 -0 0 0 -0 -0 -0 0 0 0 0 0 0 0 0 0 0 0 0 0 0 0 0 0 0 0 0 0 0 0 0 0 0 0 0 0 0 0 0
0 0 0 0 0 0 0 0 0 0 -0 -0 -0 -0 -0 -0 0 0 0 -0 -0 -0 0 0 0 0 0 0 0 0 0 0 0 0 0 0 0 0 0 0 0 0 0 0 0 0 0 0 0 0 0 0 0 0
0 0 0 0 0 0 0 0 -0 -0 -0 -0 -0 -0 0 0 0 0 -0 -0 0 0 -0 0 0 0 0 0 0 0 0 0 0 0 0 0 0 0 0 0 0 0 0 0 -0 -0 0 0 0 0 0 0 0 0
0 0 0 0 0 0 0 -0 -0 -0 -0 -0 -0 -0 0 -0 0 -0 -0 -0 0 0 0 0 0 0 0 0 0 0 0 0 0 0 0 0 0 0 0 0 0 0 0 -0 0 0 -0 0 0 0 0 0 0 0
0 0 0 0 0 0 -0 -0 -0 -0 -0 -0 -0 -0 0 0 0 0 0 0 0 0 0 -0 0 0 0 0 0 0 0 0 0 0 0 0 0 0 0 0 -0 -0 0 -0 -0 -0 -0 0 0 0 0 0 0 0
0 0 0 0 0 0 0 -0 -0 -0 -0 -0 0 0 0 0 0 0 0 0 0 0 0 -0 -0 0 0 0 0 0 0 0 0 0 0 0 0 0 0 0 0 -0 -0 -0 -0 0 0 0 0 0 0 0 0 0
0 0 0 0 0 0 -0 0 0 -0 -0 0 0 0 0 -0 0 0 0 0 0 0 0 0 -0 0 0 0 0 0 0 0 0 0 0 0 0 0 0 0 0 0 0 0 0 0 0 0 0 0 0 0 0 0
0 0 0 0 0 0 0 0 -0 -0 0 0 0 -0 0 -0 0 0 0 0 0 0 0 0 0 -0 0 0 0 0 0 0 0 0 0 0 0 0 0 0 0 0 0 0 0 0 0 0 0 0 0 0 0 0
0 0 0 0 0 -0 0 -0 -0 -0 -0 0 0 0 -0 -0 -0 0 0 0 0 0 0 0 0 0 0 0 0 0 0 0 0 0 0 0 0 0 0 0 0 0 0 0 0 0 0 0 0 0 0 0 0 0
0 0 0 0 -0 -0 -0 -0 -0 -0 0 0 0 0 0 -0 0 0 0 0 0 0 0 0 0 0 0 0 0 0 0 0 0 0 0 0 0 0 0 0 0 0 0 0 0 0 0 0 0 0 0 0 0 0
0 0 0 0 -0 0 0 -0 -0 -0 0 0 0 0 0 0 0 0 0 0 0 0 0 0 0 0 0 0 0 0 0 0 0 0 0 0 0 0 0 0 0 0 0 0 0 0 0 0 0 0 0 0 0 0
0 0 0 0 0 0 0 0 0 0 -0 0 0 -0 0 0 0 0 0 0 0 0 0 0 0 0 0 0 0 0 0 0 0 0 0 0 0 0 0 0 0 0 0 0 0 0 0 0 0 0 0 0 0 0
0 0 0 0 0 0 -0 0 0 0 -0 0 -0 0 0 0 0 0 0 0 0 0 0 0 0 0 0 0 0 0 0 0 0 0 0 0 -0 0 0 0 0 0 0 0 0 0 0 0 0 0 0 0 0 0
0 0 0 0 0 0 0 0 0 0 -0 -0 -0 0 0 0 0 0 0 0 0 0 0 0 0 0 0 0 0 0 0 0 0 0 0 0 -0 -0 -0 -0 -0 -0 -0 -0 0 0 0 0 0 -0 -0 0 0 0
0 -0 -0 0 0 0 0 0 -0 -0 -0 -0 0 0 0 0 0 0 0 0 -0 0 0 0 0 0 0 0 0 0 -0 0 0 0 0 0 -0 -0 -0 -0 -0 -0 -0 -0 0 0 0 0 0 0 0 0 0 0
-0 -0 -0 -0 -0 0 0 -0 0 -0 -0 0 0 0 0 0 0 0 0 0 -0 0 0 0 0 0 0 -0 -0 0 0 0 0 0 0 0 0 -0 -0 -0 0 0 0 0 0 0 0 0 0 0 0 0 0 0
0 0 0 0 -0 -0 -0 -0 -0 0 0 0 0 0 0 0 0 0 0 0 0 0 0 0 0 0 0 -0 0 0 -0 0 -0 -0 -0 0 -0 -0 0 0 0 0 0 0 0 0 0 0 0 0 0 0 0 0
0 0 0 0 0 0 0 0 0 0 0 0 0 0 0 0 0 0 0 0 0 0 0 0 0 0 -0 -0 -0 0 -0 -0 -0 -0 -0 -0 -0 -0 0 0 0 0 0 0 0 0 0 0 0 0 0 0 0 0
0 0 0 0 -0 0 0 0 0 0 0 0 0 0 0 0 -0 -0 0 0 0 0 -0 0 -0 -0 -0 -0 -0 -0 -0 -0 -0 0 -0 -0 -0 0 0 0 0 0 0 0 0 0 0 0 0 0 0 0 0 0
0 0 -0 -0 0 0 0 0 0 0 0 0 0 0 0 0 0 0 0 0 0 0 0 0 0 0 0 0 0 -0 -0 0 0 0 0 0 -0 -0 -0 0 0 0 0 0 0 0 0 0 0 0 0 0 0 0
-0 -0 -0 -0 0 0 0 0 0 0 0 0 0 0 0 0 0 0 0 0 0 0 0 0 0 0 0 0 0 0 0 0 0 -0 -0 0 0 0 0 0 0 0 0 0 0 0 0 0 0 0 0 0 0 0
-0 -0 -0 0 0 0 0 0 0 0 0 0 0 0 0 0 0 0 0 0 0 0 0 0 0 0 0 0 0 0 0 0 -0 0 0 -0 0 0 0 0 0 0 0 0 0 0 0 0 0 0 0 0 -0 -0
0 0 0 0 0 0 0 0 0 0 0 0 0 0 0 0 0 0 0 0 0 0 0 0 0 0 0 0 0 0 0 0 0 0 0 0 0 0 0 0 0 0 0 0 0 0 0 -0 -0 0 0 0 0 0
0 0 0 0 0 0 0 0 0 0 0 0 0 0 0 0 0 0 0 0 0 0 0 0 0 0 0 0 0 0 0 0 0 0 0 0 0 0 0 0 0 0 0 0 0 -0 -0 -0 -0 -0 0 0 0 0
0 0 0 0 0 0 0 0 0 0 0 0 0 0 0 0 0 0 0 0 0 0 0 0 0 0 0 0 0 0 0 0 0 0 -0 0 0 0 0 0 0 0 0 0 -0 -0 -0 -0 -0 -0 0 0 0 0
0 0 0 0 0 0 0 0 0 0 0 0 0 0 0 0 0 0 0 0 0 0 0 0 0 0 0 0 0 0 0 0 0 0 0 0 0 0 0 0 0 0 0 0 0 0 0 -0 -0 0 0 0 0 0
0 0 0 0 0 0 0 0 0 0 0 0 0 0 0 0 0 0 0 0 0 0 0 0 0 0 0 0 0 0 0 0 0 0 0 0 0 0 0 0 0 0 0 0 0 0 0 0 0 0 0 0 0 0
0 0 0 0 0 0 0 -0 -0 0 0 0 0 0 0 0 0 0 0 0 0 0 0 0 0 0 0 0 0 0 0 0 0 0 0 0 0 0 0 0 0 0 0 0 0 0 0 0 0 0 0 0 0 0
0 0 0 0 0 0 -0 0 0 0 0 0 0 0 0 0 0 0 0 0 0 0 0 0 0 0 0 0 0 0 0 0 0 -0 -0 0 0 0 0 0 0 0 0 0 0 0 0 0 0 0 0 0 0 0
Wind_Speed_500mb
45 44 44 44 43 44 46 46 48 47 46 47 47 39 36 38 38 42 36 17 20 15 50 18 23 42 20 16 7 14 14 4 2 3 4 4 6 6 7 10 13 9 10 6 7 6 6 7 12 13 25 38 51 54
43 42 43 42 41 42 45 45 48 46 46 46 43 37 36 36 34 39 38 11 16 21 42 39 27 20 21 27 16 17 8 8 8 5 2 4 5 7 1 9 8 5 10 10 6 6 6 42 58 70 67 62 56 59
42 41 40 40 40 41 43 44 44 45 48 44 39 37 36 34 32 32 34 16 29 17 38 21 34 30 19 25 25 8 12 24 18 16 8 2 15 6 6 6 12 7 5 12 12 12 34 56 67 67 62 62 51 44
40 39 39 39 39 39 41 41 42 42 40 40 37 38 38 35 33 26 20 9 21 16 8 18 21 13 18 23 26 28 46 46 37 22 4 7 8 7 4 5 9 2 9 15 26 27 48 43 62 63 60 48 43 37
38 37 37 36 38 37 38 39 40 37 39 41 39 37 38 37 23 12 4 9 14 11 8 24 31 12 21 25 25 34 34 34 28 8 8 6 6 8 6 7 8 7 22 11 9 23 42 33 53 49 48 44 37 34
35 35 35 35 35 37 37 37 35 38 44 41 36 35 30 19 10 4 2 1 16 16 8 6 19 15 17 18 35 31 19 18 10 6 6 8 8 7 7 6 19 17 44 67 27 59 73 61 49 43 47 42 37 32
33 33 33 34 33 35 35 37 34 41 43 37 32 25 19 14 6 3 4 12 16 9 6 8 13 13 26 23 14 20 19 16 13 6 10 3 11 9 6 6 7 52 68 79 91 85 55 48 49 44 45 42 35 31
33 31 31 32 32 33 35 35 34 39 39 27 20 14 12 6 8 4 9 13 12 7 7 4 8 12 15 14 15 23 20 18 21 10 8 8 12 10 8 7 45 56 63 60 52 51 65 58 48 47 40 33 30 23
30 31 28 30 30 29 33 29 33 33 19 16 13 10 5 5 6 13 20 12 5 7 8 3 4 6 11 8 10 12 13 7 13 7 6 7 7 6 22 36 51 63 47 59 64 63 58 53 50 40 32 27 27 21
26 28 28 26 27 27 24 25 27 25 15 13 8 2 2 7 17 8 3 5 3 5 8 6 9 7 11 9 8 9 9 3 5 5 8 7 6 17 43 60 52 61 64 68 68 54 59 53 46 37 30 27 20 16
26 27 26 25 23 19 17 23 22 23 13 6 7 3 14 8 5 3 2 7 7 5 9 7 3 3 9 3 3 2 2 2 5 8 6 4 2 3 52 60 58 57 53 49 57 57 50 50 49 45 37 28 20 15
25 24 24 23 20 15 12 18 18 17 14 15 12 10 10 6 3 3 4 3 2 5 3 4 2 4 5 5 4 4 1 4 3 1 6 5 6 44 51 53 51 48 47 51 57 57 50 45 39 36 32 26 20 15
24 22 21 20 18 14 11 15 15 16 9 1 3 4 5 5 8 4 3 4 6 22 15 10 3 7 6 4 3 4 2 6 7 5 5 7 29 48 51 57 61 54 51 55 53 48 43 39 31 28 31 22 16 14
21 19 19 18 16 11 10 15 12 8 3 3 2 6 5 5 2 3 8 7 8 10 26 24 4 1 5 5 2 1 2 5 2 2 7 6 47 61 59 63 63 57 50 48 44 44 43 40 35 27 21 15 13 15
16 14 16 16 12 6 11 13 9 9 6 5 4 5 7 7 5 12 3 3 10 16 15 9 6 4 4 3 3 1 2 6 9 8 7 41 58 54 47 52 52 54 49 47 42 38 35 31 28 26 17 12 11 13
12 9 6 3 5 8 10 5 9 10 6 6 8 5 11 6 6 11 14 13 14 20 9 4 3 1 7 6 5 9 5 7 7 5 41 55 54 51 49 57 53 53 51 52 47 42 38 31 27 25 20 12 13 14
11 6 9 10 16 12 7 7 9 9 8 6 10 23 29 15 17 14 9 17 15 12 1 4 4 9 5 3 5 4 8 6 21 43 63 61 56 53 42 42 56 54 57 52 48 40 32 26 26 23 19 14 11 10
17 13 17 15 9 6 7 11 7 8 9 15 10 12 14 17 20 18 15 14 10 3 5 5 7 5 3 1 2 3 8 34 42 52 59 54 51 41 35 31 53 52 53 47 40 33 30 27 25 19 21 20 19 16
20 28 26 23 12 6 6 8 9 7 14 20 23 25 28 24 28 25 22 19 22 11 3 6 6 5 4 4 9 28 34 43 43 45 48 45 43 34 37 43 47 53 44 36 33 27 27 20 19 27 29 28 21 25
17 13 12 17 17 6 5 6 9 9 8 8 18 21 25 14 15 5 12 24 26 11 5 2 2 11 1 12 17 32 40 48 50 44 41 38 35 39 43 46 43 39 38 34 33 32 29 29 31 33 36 22 11 17
5 4 11 14 16 13 6 7 11 9 9 9 15 19 9 8 5 5 11 20 15 6 4 4 6 1 13 10 10 22 40 48 53 52 46 39 38 37 43 38 41 41 36 33 39 37 29 25 28 25 20 18 11 10
6 8 8 11 9 7 10 12 9 6 7 12 14 6 6 2 5 7 14 7 6 11 10 16 7 13 17 13 16 31 38 40 40 40 36 40 51 43 40 39 40 36 36 31 25 34 33 29 28 23 20 22 16 13
9 9 7 7 6 8 11 12 9 7 5 5 4 4 4 10 12 16 4 2 9 18 28 17 16 20 20 20 20 31 33 35 30 38 35 42 32 32 37 37 34 34 38 30 30 32 30 26 26 22 27 27 21 16
7 3 6 8 13 8 8 11 10 7 7 3 2 4 6 4 14 8 6 5 21 31 28 20 14 16 21 22 28 36 30 29 28 35 37 35 38 35 27 28 36 28 31 31 26 28 27 28 23 25 33 27 25 12
8 9 8 11 9 7 6 5 6 3 4 6 5 5 3 1 1 1 5 7 16 26 31 27 26 21 17 15 20 22 17 18 29 31 40 30 37 44 38 36 34 30 26 30 28 28 28 23 20 27 29 15 18 15
9 9 11 12 7 8 7 4 8 9 5 7 3 3 3 3 2 5 3 6 6 7 9 15 19 18 17 11 10 23 12 21 34 30 27 42 40 42 44 41 37 29 22 21 26 29 30 29 22 21 24 22 23 19
6 8 14 13 8 7 5 2 1 2 2 3 2 3 4 2 4 3 8 3 5 9 6 8 10 13 11 8 4 11 13 11 22 38 41 37 35 35 32 33 36 30 26 23 22 25 27 23 24 24 27 24 19 17
11 9 6 6 14 16 5 3 2 7 5 7 9 3 6 5 7 10 9 11 9 9 8 11 12 11 11 17 9 11 20 18 28 29 33 45 46 37 27 23 20 21 19 19 21 23 22 23 27 34 32 28 23 15
10 11 10 15 12 8 9 7 7 5 7 9 5 5 4 7 10 11 9 4 4 4 8 9 9 13 13 15 18 23 25 32 39 31 49 53 55 47 35 27 21 17 16 15 16 17 18 19 22 22 20 19 17 19
10 14 6 7 4 0 6 8 12 14 9 7 6 7 10 10 9 3 6 4 5 8 7 7 9 5 13 17 21 30 28 30 40 53 50 54 50 42 29 22 18 16 16 15 17 17 21 24 23 17 17 18 17 20
7 17 6 3 5 18 21 16 13 8 4 3 3 2 6 6 6 8 10 7 7 7 9 15 18 21 15 20 22 39 48 39 32 43 40 33 24 24 25 20 17 15 13 13 17 24 25 23 23 23 24 25 21 17
7 6 2 1 6 15 13 5 8 6 6 4 2 5 5 4 5 3 4 3 7 11 2 2 3 16 27 32 34 33 45 40 33 32 29 30 30 25 18 16 13 13 17 22 25 23 26 25 23 19 17 16 13 11
5 6 7 3 8 10 12 8 6 6 5 6 7 9 9 6 4 4 6 9 11 10 4 3 12 18 26 28 30 37 31 33 34 34 31 24 16 18 21 21 21 22 22 21 22 28 28 23 18 15 14 13 12 13
Wind_Direction_500mb
310 314 318 322 326 328 328 330 336 338 338 341 343 341 344 348 351 342 349 347 330 292 299 310 300 316 326 345 326 307 319 292 252 14 92 154 126 195 209 123 120 123 112 126 114 116 216 188 25 96 138 125 106 101
304 309 314 319 322 324 326 328 332 332 334 336 337 337 342 343 344 337 341 16 322 278 289 326 325 325 302 332 304 315 308 302 302 343 58 150 131 195 219 109 31 47 172 138 144 189 5 99 111 120 116 108 103 101
298 303 309 315 318 320 324 329 331 332 333 333 334 335 338 337 339 333 330 360 358 306 320 358 345 343 303 339 343 321 313 335 300 314 289 224 81 55 62 110 123 111 168 121 82 40 90 101 104 110 108 102 99 98
292 299 306 311 313 318 322 328 330 334 337 333 333 334 335 335 333 328 329 9 334 301 292 300 340 327 305 333 338 322 309 317 313 297 264 57 82 41 66 112 93 164 96 103 98 107 90 82 106 111 103 103 99 93
286 295 300 306 310 313 320 325 329 332 331 330 329 330 330 332 338 346 358 73 15 328 303 295 327 340 341 315 316 331 326 339 323 12 35 27 20 57 29 50 15 2 136 129 169 166 115 120 114 113 106 106 107 108
281 289 295 302 306 309 315 321 323 328 328 325 324 328 334 339 351 146 218 172 336 309 317 301 315 333 356 335 312 318 357 340 329 0 79 65 29 95 81 72 333 98 123 126 129 125 120 118 111 108 112 113 110 101
276 284 292 297 303 306 312 317 317 325 328 324 320 328 332 322 331 277 262 291 320 332 286 297 315 316 330 329 343 2 14 7 355 52 41 72 18 71 68 91 88 98 112 118 128 124 111 121 112 119 122 115 109 99
272 281 289 296 300 308 310 314 318 325 328 324 325 324 342 6 358 5 332 344 342 324 276 307 285 314 355 340 348 3 359 7 27 15 31 20 19 52 65 149 114 111 116 121 128 130 127 122 122 125 124 124 105 95
268 280 287 293 301 307 310 311 320 329 331 336 329 317 337 28 353 319 313 302 272 268 307 184 295 299 352 346 341 352 358 24 359 37 12 46 341 38 156 135 130 133 133 130 130 130 131 128 127 127 125 117 111 110
264 275 282 291 300 311 312 319 324 333 321 329 346 9 179 299 323 324 126 160 198 245 235 244 204 272 338 354 333 6 14 22 41 303 11 63 8 54 144 142 139 141 141 144 129 125 133 132 133 131 127 119 119 125
262 272 281 290 296 304 310 329 330 331 326 346 355 321 330 3 3 275 191 177 196 253 224 236 346 288 2 79 276 325 191 4 55 281 92 58 27 20 131 130 137 144 149 155 154 151 151 145 140 134 127 125 133 141
256 269 279 288 290 288 305 328 326 327 334 331 327 342 354 342 325 19 277 292 73 236 289 121 273 306 324 319 43 341 140 55 186 170 73 107 197 137 126 129 133 136 133 131 143 138 137 138 137 133 135 133 139 137
257 268 278 281 280 269 294 318 313 312 330 41 49 322 293 277 24 220 39 41 336 344 3 332 334 346 316 317 316 28 6 222 113 60 195 197 165 145 134 136 133 135 131 128 126 128 132 131 136 144 138 136 137 134
259 270 275 266 262 245 313 313 294 291 246 207 139 308 183 243 228 162 178 199 234 275 321 332 266 256 316 357 207 272 260 94 106 175 219 194 154 149 140 141 140 139 140 135 133 132 132 134 137 140 138 138 136 127
262 272 267 261 236 250 317 305 262 247 224 212 154 236 225 8 291 311 9 343 323 320 318 306 283 218 292 328 237 347 173 221 195 215 208 168 159 158 155 149 151 146 145 142 143 145 145 144 143 139 142 139 129 111
273 265 200 189 240 301 298 256 229 225 235 218 212 259 267 326 334 337 341 312 332 335 305 266 329 322 240 202 200 215 184 215 247 205 158 157 157 157 156 161 159 156 153 151 153 153 152 149 147 145 145 127 112 103
258 202 199 262 279 279 235 232 208 225 237 227 237 236 258 269 263 287 277 266 270 324 207 116 238 232 303 218 198 155 187 221 152 151 155 157 157 153 152 162 159 157 156 156 155 155 149 144 144 153 158 150 144 124
214 198 236 270 311 191 229 208 226 235 246 233 235 243 216 276 264 263 258 236 231 212 180 207 314 257 265 170 278 219 114 136 145 153 156 157 153 154 163 166 165 158 154 154 154 153 151 155 160 151 147 172 169 160
225 232 248 261 256 211 219 211 219 251 241 253 255 253 255 271 286 270 260 210 217 211 272 227 242 227 245 215 145 145 142 143 140 150 153 155 159 162 154 159 164 157 157 162 167 167 169 170 176 166 174 168 164 181
268 249 216 188 174 206 239 214 222 251 256 249 285 269 230 248 292 272 175 191 210 227 228 288 308 325 221 117 148 167 156 153 152 148 149 147 154 154 158 161 165 170 169 166 164 168 167 176 191 193 182 189 172 175
196 139 161 182 203 227 251 227 229 238 267 261 278 298 282 169 253 196 202 194 211 194 158 275 211 109 115 107 134 164 169 166 165 164 162 156 158 163 159 168 168 165 172 175 179 185 195 191 180 183 207 208 176 153
161 175 195 191 228 225 254 231 239 275 252 268 296 253 162 185 264 176 153 156 180 115 132 175 118 145 135 122 140 156 158 168 170 166 162 161 157 161 167 170 174 185 188 187 193 195 197 193 191 203 205 197 197 162
194 187 203 213 252 228 258 211 239 223 215 249 264 276 246 176 180 144 61 107 92 154 167 178 147 159 133 107 121 149 161 165 163 169 170 167 180 187 187 186 186 192 196 197 206 195 196 190 198 209 212 204 200 186
181 182 217 221 213 251 236 210 221 241 220 242 232 273 302 151 161 198 128 118 73 107 126 130 124 144 137 140 131 147 150 155 158 162 170 173 177 170 179 198 189 193 190 173 177 182 189 185 198 230 210 206 199 203
198 224 209 236 229 234 232 216 204 206 242 180 204 242 270 143 88 82 91 101 94 90 107 114 104 97 119 139 161 176 185 209 201 180 174 193 172 156 150 154 165 177 184 184 180 181 176 185 192 198 192 188 198 213
220 225 208 207 226 199 228 211 193 204 207 176 202 80 43 62 49 70 78 126 139 98 114 124 114 110 101 119 174 182 176 163 179 179 198 196 187 178 162 158 159 160 175 183 179 177 176 181 184 193 192 193 203 203
253 261 225 231 253 329 353 150 37 317 276 173 205 89 78 89 110 141 146 151 225 259 255 236 219 189 168 167 140 215 210 182 184 168 170 178 185 192 191 182 172 161 167 181 175 182 184 190 181 184 183 177 169 156
246 277 255 288 235 229 182 234 201 197 200 143 149 178 164 166 191 174 192 210 263 298 264 251 233 220 208 212 192 161 182 209 168 167 176 176 173 175 175 163 159 175 191 204 200 192 200 200 184 184 184 182 173 168
239 246 263 257 257 223 208 153 205 225 133 161 191 138 133 127 158 173 212 255 302 259 253 251 239 205 213 217 208 194 192 209 185 167 170 161 160 162 168 169 168 176 185 190 194 199 196 196 183 175 167 168 175 186
240 218 226 263 250 81 68 147 129 136 133 111 110 137 141 156 192 274 321 249 232 248 220 217 217 226 206 201 193 179 165 188 195 178 176 165 163 162 169 179 183 184 188 200 202 188 180 179 170 178 177 167 171 176
253 184 227 194 18 126 124 122 124 119 115 82 345 176 152 180 212 280 298 231 229 244 251 253 246 238 230 187 173 173 176 180 200 181 164 167 165 186 189 173 166 160 153 147 155 167 173 173 174 166 162 172 178 187
204 213 205 115 122 163 156 155 169 136 164 183 140 141 159 193 222 231 268 199 153 120 91 21 198 183 170 169 159 141 158 163 167 165 182 192 187 178 173 172 163 156 149 148 162 176 184 184 189 203 218 214 214 208
266 285 260 213 152 185 192 162 159 153 193 203 195 186 191 199 213 216 187 173 157 167 127 73 173 172 167 174 178 180 162 151 155 173 177 174 176 192 190 189 193 191 190 189 176 181 193 203 210 215 213 219 231 234
Wind_Speed_850mb
45 44 44 44 43 44 46 46 48 47 46 47 47 39 36 38 38 42 36 17 20 15 50 18 23 42 20 16 7 14 14 4 2 3 4 4 6 6 7 10 13 9 10 6 7 6 6 7 12 13 25 38 51 54
43 42 43 42 41 42 45 45 48 46 46 46 43 37 36 36 34 39 38 11 16 21 42 39 27 20 21 27 16 17 8 8 8 5 2 4 5 7 1 9 8 5 10 10 6 6 6 42 58 70 67 62 56 59
42 41 40 40 40 41 43 44 44 45 48 44 39 37 36 34 32 32 34 16 29 17 38 21 34 30 19 25 25 8 12 24 18 16 8 2 15 6 6 6 12 7 5 12 12 12 34 56 67 67 62 62 51 44
40 39 39 39 39 39 41 41 42 42 40 40 37 38 38 35 33 26 20 9 21 16 8 18 21 13 18 23 26 28 46 46 37 22 4 7 8 7 4 5 9 2 9 15 26 27 48 43 62 63 60 48 43 37
38 37 37 36 38 37 38 39 40 37 39 41 39 37 38 37 23 12 4 9 14 11 8 24 31 12 21 25 25 34 34 34 28 8 8 6 6 8 6 7 8 7 22 11 9 23 42 33 53 49 48 44 37 34
35 35 35 35 35 37 37 37 35 38 44 41 36 35 30 19 10 4 2 1 16 16 8 6 19 15 17 18 35 31 19 18 10 6 6 8 8 7 7 6 19 17 44 67 27 59 73 61 49 43 47 42 37 32
33 33 33 34 33 35 35 37 34 41 43 37 32 25 19 14 6 3 4 12 16 9 6 8 13 13 26 23 14 20 19 16 13 6 10 3 11 9 6 6 7 52 68 79 91 85 55 48 49 44 45 42 35 31
33 31 31 32 32 33 35 35 34 39 39 27 20 14 12 6 8 4 9 13 12 7 7 4 8 12 15 14 15 23 20 18 21 10 8 8 12 10 8 7 45 56 63 60 52 51 65 58 48 47 40 33 30 23
30 31 28 30 30 29 33 29 33 33 19 16 13 10 5 5 6 13 20 12 5 7 8 3 4 6 11 8 10 12 13 7 13 7 6 7 7 6 22 36 51 63 47 59 64 63 58 53 50 40 32 27 27 21
26 28 28 26 27 27 24 25 27 25 15 13 8 2 2 7 17 8 3 5 3 5 8 6 9 7 11 9 8 9 9 3 5 5 8 7 6 17 43 60 52 61 64 68 68 54 59 53 46 37 30 27 20 16
26 27 26 25 23 19 17 23 22 23 13 6 7 3 14 8 5 3 2 7 7 5 9 7 3 3 9 3 3 2 2 2 5 8 6 4 2 3 52 60 58 57 53 49 57 57 50 50 49 45 37 28 20 15
25 24 24 23 20 15 12 18 18 17 14 15 12 10 10 6 3 3 4 3 2 5 3 4 2 4 5 5 4 4 1 4 3 1 6 5 6 44 51 53 51 48 47 51 57 57 50 45 39 36 32 26 20 15
24 22 21 20 18 14 11 15 15 16 9 1 3 4 5 5 8 4 3 4 6 22 15 10 3 7 6 4 3 4 2 6 7 5 5 7 29 48 51 57 61 54 51 55 53 48 43 39 31 28 31 22 16 14
21 19 19 18 16 11 10 15 12 8 3 3 2 6 5 5 2 3 8 7 8 10 26 24 4 1 5 5 2 1 2 5 2 2 7 6 47 61 59 63 63 57 50 48 44 44 43 40 35 27 21 15 13 15
16 14 16 16 12 6 11 13 9 9 6 5 4 5 7 7 5 12 3 3 10 16 15 9 6 4 4 3 3 1 2 6 9 8 7 41 58 54 47 52 52 54 49 47 42 38 35 31 28 26 17 12 11 13
12 9 6 3 5 8 10 5 9 10 6 6 8 5 11 6 6 11 14 13 14 20 9 4 3 1 7 6 5 9 5 7 7 5 41 55 54 51 49 57 53 53 51 52 47 42 38 31 27 25 20 12 13 14
11 6 9 10 16 12 7 7 9 9 8 6 10 23 29 15 17 14 9 17 15 12 1 4 4 9 5 3 5 4 8 6 21 43 63 61 56 53 42 42 56 54 57 52 48 40 32 26 26 23 19 14 11 10
17 13 17 15 9 6 7 11 7 8 9 15 10 12 14 17 20 18 15 14 10 3 5 5 7 5 3 1 2 3 8 34 42 52 59 54 51 41 35 31 53 52 53 47 40 33 30 27 25 19 21 20 19 16
20 28 26 23 12 6 6 8 9 7 14 20 23 25 28 24 28 25 22 19 22 11 3 6 6 5 4 4 9 28 34 43 43 45 48 45 43 34 37 43 47 53 44 36 33 27 27 20 19 27 29 28 21 25
17 13 12 17 17 6 5 6 9 9 8 8 18 21 25 14 15 5 12 24 26 11 5 2 2 11 1 12 17 32 40 48 50 44 41 38 35 39 43 46 43 39 38 34 33 32 29 29 31 33 36 22 11 17
5 4 11 14 16 13 6 7 11 9 9 9 15 19 9 8 5 5 11 20 15 6 4 4 6 1 13 10 10 22 40 48 53 52 46 39 38 37 43 38 41 41 36 33 39 37 29 25 28 25 20 18 11 10
6 8 8 11 9 7 10 12 9 6 7 12 14 6 6 2 5 7 14 7 6 11 10 16 7 13 17 13 16 31 38 40 40 40 36 40 51 43 40 39 40 36 36 31 25 34 33 29 28 23 20 22 16 13
9 9 7 7 6 8 11 12 9 7 5 5 4 4 4 10 12 16 4 2 9 18 28 17 16 20 20 20 20 31 33 35 30 38 35 42 32 32 37 37 34 34 38 30 30 32 30 26 26 22 27 27 21 16
7 3 6 8 13 8 8 11 10 7 7 3 2 4 6 4 14 8 6 5 21 31 28 20 14 16 21 22 28 36 30 29 28 35 37 35 38 35 27 28 36 28 31 31 26 28 27 28 23 25 33 27 25 12
8 9 8 11 9 7 6 5 6 3 4 6 5 5 3 1 1 1 5 7 16 26 31 27 26 21 17 15 20 22 17 18 29 31 40 30 37 44 38 36 34 30 26 30 28 28 28 23 20 27 29 15 18 15
9 9 11 12 7 8 7 4 8 9 5 7 3 3 3 3 2 5 3 6 6 7 9 15 19 18 17 11 10 23 12 21 34 30 27 42 40 42 44 41 37 29 22 21 26 29 30 29 22 21 24 22 23 19
6 8 14 13 8 7 5 2 1 2 2 3 2 3 4 2 4 3 8 3 5 9 6 8 10 13 11 8 4 11 13 11 22 38 41 37 35 35 32 33 36 30 26 23 22 25 27 23 24 24 27 24 19 17
11 9 6 6 14 16 5 3 2 7 5 7 9 3 6 5 7 10 9 11 9 9 8 11 12 11 11 17 9 11 20 18 28 29 33 45 46 37 27 23 20 21 19 19 21 23 22 23 27 34 32 28 23 15
10 11 10 15 12 8 9 7 7 5 7 9 5 5 4 7 10 11 9 4 4 4 8 9 9 13 13 15 18 23 25 32 39 31 49 53 55 47 35 27 21 17 16 15 16 17 18 19 22 22 20 19 17 19
10 14 6 7 4 0 6 8 12 14 9 7 6 7 10 10 9 3 6 4 5 8 7 7 9 5 13 17 21 30 28 30 40 53 50 54 50 42 29 22 18 16 16 15 17 17 21 24 23 17 17 18 17 20
7 17 6 3 5 18 21 16 13 8 4 3 3 2 6 6 6 8 10 7 7 7 9 15 18 21 15 20 22 39 48 39 32 43 40 33 24 24 25 20 17 15 13 13 17 24 25 23 23 23 24 25 21 17
7 6 2 1 6 15 13 5 8 6 6 4 2 5 5 4 5 3 4 3 7 11 2 2 3 16 27 32 34 33 45 40 33 32 29 30 30 25 18 16 13 13 17 22 25 23 26 25 23 19 17 16 13 11
5 6 7 3 8 10 12 8 6 6 5 6 7 9 9 6 4 4 6 9 11 10 4 3 12 18 26 28 30 37 31 33 34 34 31 24 16 18 21 21 21 22 22 21 22 28 28 23 18 15 14 13 12 13
Wind_Direction_850mb
310 314 318 322 326 328 328 330 336 338 338 341 343 341 344 348 351 342 349 347 330 292 299 310 300 316 326 345 326 307 319 292 252 14 92 154 126 195 209 123 120 123 112 126 114 116 216 188 25 96 138 125 106 101
304 309 314 319 322 324 326 328 332 332 334 336 337 337 342 343 344 337 341 16 322 278 289 326 325 325 302 332 304 315 308 302 302 343 58 150 131 195 219 109 31 47 172 138 144 189 5 99 111 120 116 108 103 101
298 303 309 315 318 320 324 329 331 332 333 333 334 335 338 337 339 333 330 360 358 306 320 358 345 343 303 339 343 321 313 335 300 314 289 224 81 55 62 110 123 111 168 121 82 40 90 101 104 110 108 102 99 98
292 299 306 311 313 318 322 328 330 334 337 333 333 334 335 335 333 328 329 9 334 301 292 300 340 327 305 333 338 322 309 317 313 297 264 57 82 41 66 112 93 164 96 103 98 107 90 82 106 111 103 103 99 93
286 295 300 306 310 313 320 325 329 332 331 330 329 330 330 332 338 346 358 73 15 328 303 295 327 340 341 315 316 331 326 339 323 12 35 27 20 57 29 50 15 2 136 129 169 166 115 120 114 113 106 106 107 108
281 289 295 302 306 309 315 321 323 328 328 325 324 328 334 339 351 146 218 172 336 309 317 301 315 333 356 335 312 318 357 340 329 0 79 65 29 95 81 72 333 98 123 126 129 125 120 118 111 108 112 113 110 101
276 284 292 297 303 306 312 317 317 325 328 324 320 328 332 322 331 277 262 291 320 332 286 297 315 316 330 329 343 2 14 7 355 52 41 72 18 71 68 91 88 98 112 118 128 124 111 121 112 119 122 115 109 99
272 281 289 296 300 308 310 314 318 325 328 324 325 324 342 6 358 5 332 344 342 324 276 307 285 314 355 340 348 3 359 7 27 15 31 20 19 52 65 149 114 111 116 121 128 130 127 122 122 125 124 124 105 95
268 280 287 293 301 307 310 311 320 329 331 336 329 317 337 28 353 319 313 302 272 268 307 184 295 299 352 346 341 352 358 24 359 37 12 46 341 38 156 135 130 133 133 130 130 130 131 128 127 127 125 117 111 110
264 275 282 291 300 311 312 319 324 333 321 329 346 9 179 299 323 324 126 160 198 245 235 244 204 272 338 354 333 6 14 22 41 303 11 63 8 54 144 142 139 141 141 144 129 125 133 132 133 131 127 119 119 125
262 272 281 290 296 304 310 329 330 331 326 346 355 321 330 3 3 275 191 177 196 253 224 236 346 288 2 79 276 325 191 4 55 281 92 58 27 20 131 130 137 144 149 155 154 151 151 145 140 134 127 125 133 141
256 269 279 288 290 288 305 328 326 327 334 331 327 342 354 342 325 19 277 292 73 236 289 121 273 306 324 319 43 341 140 55 186 170 73 107 197 137 126 129 133 136 133 131 143 138 137 138 137 133 135 133 139 137
257 268 278 281 280 269 294 318 313 312 330 41 49 322 293 277 24 220 39 41 336 344 3 332 334 346 316 317 316 28 6 222 113 60 195 197 165 145 134 136 133 135 131 128 126 128 132 131 136 144 138 136 137 134
259 270 275 266 262 245 313 313 294 291 246 207 139 308 183 243 228 162 178 199 234 275 321 332 266 256 316 357 207 272 260 94 106 175 219 194 154 149 140 141 140 139 140 135 133 132 132 134 137 140 138 138 136 127
262 272 267 261 236 250 317 305 262 247 224 212 154 236 225 8 291 311 9 343 323 320 318 306 283 218 292 328 237 347 173 221 195 215 208 168 159 158 155 149 151 146 145 142 143 145 145 144 143 139 142 139 129 111
273 265 200 189 240 301 298 256 229 225 235 218 212 259 267 326 334 337 341 312 332 335 305 266 329 322 240 202 200 215 184 215 247 205 158 157 157 157 156 161 159 156 153 151 153 153 152 149 147 145 145 127 112 103
258 202 199 262 279 279 235 232 208 225 237 227 237 236 258 269 263 287 277 266 270 324 207 116 238 232 303 218 198 155 187 221 152 151 155 157 157 153 152 162 159 157 156 156 155 155 149 144 144 153 158 150 144 124
214 198 236 270 311 191 229 208 226 235 246 233 235 243 216 276 264 263 258 236 231 212 180 207 314 257 265 170 278 219 114 136 145 153 156 157 153 154 163 166 165 158 154 154 154 153 151 155 160 151 147 172 169 160
225 232 248 261 256 211 219 211 219 251 241 253 255 253 255 271 286 270 260 210 217 211 272 227 242 227 245 215 145 145 142 143 140 150 153 155 159 162 154 159 164 157 157 162 167 167 169 170 176 166 174 168 164 181
268 249 216 188 174 206 239 214 222 251 256 249 285 269 230 248 292 272 175 191 210 227 228 288 308 325 221 117 148 167 156 153 152 148 149 147 154 154 158 161 165 170 169 166 164 168 167 176 191 193 182 189 172 175
196 139 161 182 203 227 251 227 229 238 267 261 278 298 282 169 253 196 202 194 211 194 158 275 211 109 115 107 134 164 169 166 165 164 162 156 158 163 159 168 168 165 172 175 179 185 195 191 180 183 207 208 176 153
161 175 195 191 228 225 254 231 239 275 252 268 296 253 162 185 264 176 153 156 180 115 132 175 118 145 135 122 140 156 158 168 170 166 162 161 157 161 167 170 174 185 188 187 193 195 197 193 191 203 205 197 197 162
194 187 203 213 252 228 258 211 239 223 215 249 264 276 246 176 180 144 61 107 92 154 167 178 147 159 133 107 121 149 161 165 163 169 170 167 180 187 187 186 186 192 196 197 206 195 196 190 198 209 212 204 200 186
181 182 217 221 213 251 236 210 221 241 220 242 232 273 302 151 161 198 128 118 73 107 126 130 124 144 137 140 131 147 150 155 158 162 170 173 177 170 179 198 189 193 190 173 177 182 189 185 198 230 210 206 199 203
198 224 209 236 229 234 232 216 204 206 242 180 204 242 270 143 88 82 91 101 94 90 107 114 104 97 119 139 161 176 185 209 201 180 174 193 172 156 150 154 165 177 184 184 180 181 176 185 192 198 192 188 198 213
220 225 208 207 226 199 228 211 193 204 207 176 202 80 43 62 49 70 78 126 139 98 114 124 114 110 101 119 174 182 176 163 179 179 198 196 187 178 162 158 159 160 175 183 179 177 176 181 184 193 192 193 203 203
253 261 225 231 253 329 353 150 37 317 276 173 205 89 78 89 110 141 146 151 225 259 255 236 219 189 168 167 140 215 210 182 184 168 170 178 185 192 191 182 172 161 167 181 175 182 184 190 181 184 183 177 169 156
246 277 255 288 235 229 182 234 201 197 200 143 149 178 164 166 191 174 192 210 263 298 264 251 233 220 208 212 192 161 182 209 168 167 176 176 173 175 175 163 159 175 191 204 200 192 200 200 184 184 184 182 173 168
239 246 263 257 257 223 208 153 205 225 133 161 191 138 133 127 158 173 212 255 302 259 253 251 239 205 213 217 208 194 192 209 185 167 170 161 160 162 168 169 168 176 185 190 194 199 196 196 183 175 167 168 175 186
240 218 226 263 250 81 68 147 129 136 133 111 110 137 141 156 192 274 321 249 232 248 220 217 217 226 206 201 193 179 165 188 195 178 176 165 163 162 169 179 183 184 188 200 202 188 180 179 170 178 177 167 171 176
253 184 227 194 18 126 124 122 124 119 115 82 345 176 152 180 212 280 298 231 229 244 251 253 246 238 230 187 173 173 176 180 200 181 164 167 165 186 189 173 166 160 153 147 155 167 173 173 174 166 162 172 178 187
204 213 205 115 122 163 156 155 169 136 164 183 140 141 159 193 222 231 268 199 153 120 91 21 198 183 170 169 159 141 158 163 167 165 182 192 187 178 173 172 163 156 149 148 162 176 184 184 189 203 218 214 214 208
266 285 260 213 152 185 192 162 159 153 193 203 195 186 191 199 213 216 187 173 157 167 127 73 173 172 167 174 178 180 162 151 155 173 177 174 176 192 190 189 193 191 190 189 176 181 193 203 210 215 213 219 231 234